This is the latest recevied weather packets stored in our database for station/object WD5U-1. If no packets are shown the sender has not sent any weather packets the latest 10 day(s).
| Time | Temp. | Humidity | Pressure | Rain* | Wind** | Luminosity | Snow |
|---|---|---|---|---|---|---|---|
| 1777637779 | 13.33° C | 88% | 1018.2 hPa | 0 mm | - | - | - |
| 1777637667 | 13.33° C | 88% | 1018.1 hPa | 0 mm | - | - | - |
| 1777636936 | 13.33° C | 89% | 1017.2 hPa | 0 mm | - | - | - |
| 1777636582 | 13.33° C | 88% | 1017.3 hPa | 0 mm | - | - | - |
| 1777636460 | 13.33° C | 89% | 1017.3 hPa | 0 mm | - | - | - |
| 1777635620 | 12.78° C | 90% | 1017.6 hPa | 0 mm | - | - | - |
| 1777634416 | 13.33° C | 86% | 1017.8 hPa | 0 mm | - | - | - |
| 1777634305 | 13.33° C | 86% | 1017.8 hPa | 0 mm | - | - | - |
| 1777633464 | 13.33° C | 86% | 1017.7 hPa | 0 mm | - | - | - |
| 1777632857 | 13.33° C | 86% | 1017.4 hPa | 0 mm | - | - | - |
| 1777632017 | 13.33° C | 86% | 1017.7 hPa | 0 mm | - | - | - |
| 1777629385 | 13.33° C | 95% | 1017.6 hPa | 0 mm | - | - | - |
| 1777628100 | 13.33° C | 94% | 1017.5 hPa | 0 mm | - | - | - |
| 1777627816 | 13.33° C | 94% | 1017.5 hPa | 0 mm | - | - | - |
| 1777627340 | 13.33° C | 93% | 1017.6 hPa | 0 mm | - | - | - |
| 1777627097 | 13.33° C | 93% | 1017.6 hPa | 0 mm | - | - | - |
| 1777626976 | 13.33° C | 92% | 1017.4 hPa | 0 mm | - | - | - |
| 1777626763 | 13.33° C | 92% | 1017.5 hPa | 0 mm | - | - | - |
| 1777625308 | 13.89° C | 90% | 1017.4 hPa | 0 mm | - | - | - |
| 1777625184 | 13.89° C | 89% | 1017.3 hPa | 0 mm | - | - | - |
| 1777624943 | 13.89° C | 89% | 1017.1 hPa | 0 mm | - | - | - |
| 1777624579 | 13.89° C | 88% | 1017.5 hPa | 0 mm | - | - | - |
| 1777624101 | 13.89° C | 87% | 1017.5 hPa | 0 mm | - | - | - |
| 1777623979 | 13.89° C | 87% | 1017.3 hPa | 0 mm | - | - | - |
| 1777623524 | 13.89° C | 86% | 1017.1 hPa | 0 mm | - | - | - |
* Rain latest hour (hover to see other rain measurements)
** Current wind speed in m/s (hover to see current wind gust speed)